Location: Deuil
(48.9767°N, 2.3272°E)
Time: 02:48:09
(UTC+00:00)

Cosmos 2360 Rocket - Pass Details

Date: 24 May 2022
Orbit: 832 x 846 km, 71.0° (Epoch: 03 July)

Event Time Altitude Azimuth Distance (km) Brightness Sun altitude
Exits shadow 00:10:39 22° 238° (WSW) 1,741 3.5 -20.1°
Maximum altitude 00:14:04 51° 305° (NW) 1,050 2.8 -20.0°
Drops below altitude 10° 00:19:35 10° 21° (NNE) 2,468 5.8 -19.9°
Sets 00:22:08 0° 27° (NNE) 3,409 6.7 -19.9°
